Weather History for Umea, Sweden

Change the Weather History Date:

Sunday, March 3, 2013

  Actual Average Record
Temperature  
Mean Temperature 8 °F -  
Max Temperature 26 °F - - ()
Min Temperature -9 °F - - ()
Degree Days  
Heating Degree Days 56    
Moisture  
Dew Point 9 °F    
Average Humidity 83    
Maximum Humidity 93    
Minimum Humidity 64    
Precipitation  
Precipitation 0.00 in - - ()
Sea Level Pressure  
Sea Level Pressure 29.77 in    
Wind  
Wind Speed 4 mph ()    
Max Wind Speed 8 mph    
Max Gust Speed -    
Visibility 4.1 miles    
Events Fog , Snow    
T = Trace of Precipitation, MM = Missing Value Source: Averaged Metar Reports

Daily Weather History Graph

Daily Weather History Graph

Search for Another Location

Airport:

Trip Planner

Search our weather history database for the weather conditions in past years. The results will help you decide how hot, cold, wet, or windy it might be!

Date:

Astronomy

Mar. 03, 2013 Rise Set
Actual Time 6:38 AM CET 5:04 PM CET
Civil Twilight 5:51 AM CET 5:51 PM CET
Nautical Twilight 4:57 AM CET 6:46 PM CET
Astronomical Twilight 4:00 AM CET 7:43 PM CET
Moon 12:32 AM CET (3/3) 7:23 AM CET (3/3)
Length of Visible Light 12h 00m
Length of Day
10h 25m
Waning Gibbous, 66% of the Moon is Illuminated
Mar 3
Waning Gibbous
Mar 4
Last Quarter
Mar 11
New
Mar 19
First Quarter
Mar 27
Full

Hourly Weather History & Observations

Time (CET) Temp. Windchill Dew Point Humidity Pressure Visibility Wind Dir Wind Speed Gust Speed Precip Events Conditions
12:20 AM 17.6 °F 7.3 °F 15.8 °F 93% 29.44 in 1.0 mi NE 8.1 mph - N/A Snow Snow
12:50 AM 17.6 °F 8.2 °F 15.8 °F 93% 29.47 in - NE 6.9 mph - N/A Snow Light Snow
1:20 AM 19.4 °F 10.4 °F 15.8 °F 86% 29.50 in - NE 6.9 mph - N/A Snow Light Snow
1:50 AM 17.6 °F 8.2 °F 15.8 °F 93% 29.50 in 3.1 mi NE 6.9 mph - N/A Snow Light Snow
2:20 AM 17.6 °F 9.3 °F 15.8 °F 93% 29.53 in 3.1 mi NNE 5.8 mph - N/A Snow Light Snow
2:50 AM 17.6 °F 9.3 °F 15.8 °F 93% 29.53 in 1.0 mi North 5.8 mph - N/A Snow Snow
3:20 AM 17.6 °F 9.3 °F 15.8 °F 93% 29.56 in 1.9 mi North 5.8 mph - N/A Snow Light Snow
3:50 AM 17.6 °F 9.3 °F 15.8 °F 93% 29.56 in 1.5 mi North 5.8 mph - N/A Snow Light Snow
4:20 AM 17.6 °F 9.3 °F 15.8 °F 93% 29.59 in 1.4 mi NNE 5.8 mph - N/A Snow Light Snow
4:50 AM 17.6 °F 9.3 °F 15.8 °F 93% 29.59 in 1.5 mi North 5.8 mph - N/A Snow Light Snow
5:20 AM 17.6 °F 8.2 °F 15.8 °F 93% 29.62 in - NNE 6.9 mph - N/A Snow Light Snow
5:50 AM 17.6 °F 9.3 °F 15.8 °F 93% 29.62 in 1.4 mi NNE 5.8 mph - N/A Snow Snow
6:20 AM 17.6 °F 9.3 °F 15.8 °F 93% 29.65 in - NNE 5.8 mph - N/A Snow Light Snow
6:50 AM 17.6 °F 9.3 °F 15.8 °F 93% 29.65 in 1.5 mi NNE 5.8 mph - N/A Snow Snow
7:20 AM 17.6 °F 7.3 °F 14.0 °F 86% 29.68 in 2.5 mi NE 8.1 mph - N/A Snow Light Snow
7:50 AM 17.6 °F 7.3 °F 14.0 °F 86% 29.68 in 3.1 mi NE 8.1 mph - N/A Snow Light Snow
8:20 AM 17.6 °F 10.7 °F 14.0 °F 86% 29.71 in 3.1 mi NNE 4.6 mph - N/A Snow Light Snow
8:50 AM 19.4 °F 12.8 °F 15.8 °F 86% 29.74 in 3.7 mi NNE 4.6 mph - N/A Snow Light Snow
9:20 AM 19.4 °F 12.8 °F 15.8 °F 86% 29.74 in 5.0 mi NNE 4.6 mph - N/A   Mostly Cloudy
9:50 AM 19.4 °F 11.5 °F 15.8 °F 86% 29.77 in 2.8 mi NE 5.8 mph - N/A Snow Light Snow
10:20 AM 19.4 °F 14.3 °F 15.8 °F 86% 29.77 in 4.3 mi NNE 3.5 mph - N/A Snow Light Snow
10:50 AM 19.4 °F 10.4 °F 14.0 °F 80% 29.80 in 2.5 mi NE 6.9 mph - N/A Snow Light Snow
11:20 AM 19.4 °F 11.5 °F 12.2 °F 74% 29.80 in 6.2 mi ENE 5.8 mph - N/A   Mostly Cloudy
11:50 AM 19.4 °F 11.5 °F 12.2 °F 74% 29.80 in 6.2 mi NE 5.8 mph - N/A   Scattered Clouds
12:20 PM 21.2 °F 14.9 °F 12.2 °F 68% 29.83 in 6.2 mi ENE 4.6 mph - N/A   Mostly Cloudy
12:50 PM 19.4 °F 12.8 °F 12.2 °F 74% 29.83 in 6.2 mi ENE 4.6 mph - N/A   Scattered Clouds
1:20 PM 21.2 °F 16.4 °F 12.2 °F 68% 29.83 in 6.2 mi East 3.5 mph - N/A   Mostly Cloudy
1:50 PM 26.6 °F 22.6 °F 15.8 °F 64% 29.86 in 6.2 mi NNE 3.5 mph - N/A   Scattered Clouds
2:20 PM 21.2 °F - 12.2 °F 68% 29.86 in 6.2 mi Variable 1.2 mph - N/A   Scattered Clouds
2:50 PM 23.0 °F - 14.0 °F 68% 29.86 in 6.2 mi Calm Calm - N/A   Mostly Cloudy
3:20 PM 21.2 °F - 14.0 °F 74% 29.89 in 6.2 mi Variable 2.3 mph - N/A Snow Light Snow
3:50 PM 19.4 °F 14.3 °F 14.0 °F 80% 29.89 in 6.2 mi NNW 3.5 mph - N/A Snow Light Snow
4:20 PM 17.6 °F - 12.2 °F 79% 29.89 in 6.2 mi NW 2.3 mph - N/A Snow Light Snow
4:50 PM 17.6 °F - 14.0 °F 86% 29.89 in 6.2 mi WNW 1.2 mph - N/A   Scattered Clouds
5:20 PM 12.2 °F - 8.6 °F 85% 29.92 in 6.2 mi WSW 1.2 mph - N/A   Scattered Clouds
5:50 PM 12.2 °F - 8.6 °F 85% 29.92 in 6.2 mi Calm Calm - N/A   Scattered Clouds
6:20 PM 5.0 °F - 3.2 °F 92% 29.92 in 6.2 mi SSE 1.2 mph - N/A   Scattered Clouds
6:50 PM 5.0 °F - 1.4 °F 85% 29.92 in 6.2 mi Calm Calm - N/A   Partly Cloudy
7:20 PM 1.4 °F - -4.0 °F 78% 29.95 in 6.2 mi Calm Calm - N/A   Unknown
7:50 PM -0.4 °F - -4.0 °F 85% 29.95 in 6.2 mi Calm Calm - N/A   Unknown
8:20 PM -0.4 °F - -4.0 °F 85% 29.95 in 0.1 mi Variable 1.2 mph - N/A   Unknown
8:50 PM -0.4 °F - -4.0 °F 85% 29.95 in 1.9 mi Calm Calm - N/A Fog Patches of Fog
9:20 PM -4.0 °F - -9.4 °F 78% 29.95 in 6.2 mi Calm Calm - N/A   Unknown
9:50 PM -4.0 °F - -9.4 °F 78% 29.95 in 1.2 mi Calm Calm - N/A   Unknown
10:20 PM -5.8 °F - -11.2 °F 77% 29.95 in 0.2 mi Calm Calm - N/A   Unknown
10:50 PM -9.4 °F - -14.8 °F 77% 29.95 in - Calm Calm - N/A   Mist
11:20 PM -9.4 °F - -14.8 °F 77% 29.95 in 5.0 mi WNW 2.3 mph - N/A   Mist
11:50 PM -9.4 °F - -14.8 °F 77% 29.95 in - Calm Calm - N/A   Clear